User: anonymous   Login
Location: Dentlein
(49.1477°N, 10.4231°E)
Time: 10:19:38
(UTC+00:00)
Language:

Okean 2 - Orbit

View from above orbital plane
View from above orbital plane
View from above satellite
View from above satellite

Ground track
Ground track

The orbit data is extracted from the following two-line orbital elements,

1 20510U 90018A   24197.96316903  .00006165  00000-0  41237-3 0  9994
2 20510  82.5116 202.2324 0009390 220.2534 158.0587 15.06756342848088
Epoch (UTC): 15 July 2024 23:06:57
Eccentricity: 0.0009390
inclination: 82.5116°
perigee height: 539 km
apogee height: 552 km
right ascension of ascending node: 202.2324°
argument of perigee: 220.2534°
revolutions per day: 15.06756342
mean anomaly at epoch: 158.0587°
orbit number at epoch: 84808

The dashed part of the orbit path shows where the satellite is in the earth's shadow,  

DLR